Location: Asheville, NC
(35.6000°N, 82.5500°W)
Time: 05:19:10
(UTC-04:00)

LilacSat-2 - Pass Details

Date: 07 January 2018
Orbit: 515 x 536 km, 97.5° (Epoch: 22 April)

Event Time Altitude Azimuth Distance (km) Brightness Sun altitude
Rises 05:32:23 0° 34° (NNE) 2,663 ? -25.4°
Reaches altitude 10° 05:35:18 10° 58° (ENE) 1,763 ? -24.8°
Maximum altitude 05:37:28 15° 93° (E) 1,483 ? -24.4°
Drops below altitude 10° 05:39:38 10° 129° (SE) 1,749 ? -23.9°
Sets 05:42:30 0° 153° (SSE) 2,626 ? -23.4°
